Theta_e
339 340 341 341 342 341 338 338 338 337 337 337 336 337 338 338 338 337 337 337 336 335 334 335 336 333 331 332 332 331 332 332 331 331 332 331 331 331 330 329 329 328 329 328 329 329 329 328 327 328 330 331 331 331 331 331 331 332 331 331 331 331 332 332 332 331 331 331 331 331 331 329 328 327
338 340 341 341 342 341 338 337 337 335 335 335 334 335 336 336 337 338 337 337 336 335 334 334 335 334 332 333 333 332 332 332 331 331 331 331 331 330 328 327 326 326 326 326 327 328 328 327 327 328 330 331 331 332 332 332 332 331 331 331 331 331 331 332 332 332 331 332 331 331 331 331 331 330
336 339 341 341 341 340 338 338 337 334 334 335 334 334 333 333 336 338 338 337 337 336 335 335 335 334 333 333 334 335 332 330 331 331 331 331 329 328 326 326 326 326 326 326 327 329 329 328 328 329 331 332 332 332 331 331 330 330 329 330 331 331 331 331 332 332 331 331 331 331 331 331 331 331
335 337 340 341 340 338 337 337 336 335 335 334 333 333 332 332 333 336 338 338 339 338 336 335 336 335 334 332 334 336 334 331 331 332 331 330 328 328 329 329 327 327 326 326 327 329 329 329 329 329 330 331 332 332 331 330 329 328 327 329 330 331 331 331 331 331 330 330 329 329 329 330 330 330
335 337 340 340 339 336 335 336 337 337 335 335 334 333 333 334 333 335 338 339 339 340 337 336 336 335 334 334 334 335 335 333 331 331 330 329 329 330 331 332 330 327 326 326 327 328 329 329 328 328 328 329 330 331 331 331 329 328 328 329 329 330 330 330 329 329 328 328 327 326 327 328 329 330
334 337 340 340 339 336 335 336 337 338 337 337 337 335 334 336 335 334 337 339 339 339 339 338 338 336 336 336 335 334 336 335 333 332 331 330 330 330 332 333 332 328 326 326 327 328 329 329 328 327 327 328 329 329 330 330 329 329 328 328 328 328 328 328 327 327 326 326 325 324 324 326 328 329
334 336 339 340 339 338 336 336 337 338 338 338 338 337 335 337 338 335 334 338 339 339 340 339 339 338 337 337 335 333 333 333 333 334 334 332 331 331 331 332 331 329 327 326 327 328 329 328 327 327 327 327 328 328 328 328 328 328 328 328 328 327 327 326 325 323 323 323 323 323 323 324 327 329
335 335 339 340 340 339 337 337 338 338 337 337 338 338 336 335 337 336 334 335 337 339 340 340 339 339 338 338 336 333 334 334 333 333 334 333 332 332 332 332 331 329 327 326 326 326 327 326 326 326 326 326 326 327 327 327 327 326 325 324 323 323 323 322 320 319 319 319 321 323 325 325 326 327
337 335 338 339 339 339 338 339 339 337 336 336 337 337 336 336 336 336 335 334 337 338 339 340 340 338 338 338 336 334 335 337 336 335 334 333 332 332 334 334 333 329 327 326 326 326 326 326 326 325 325 325 325 325 325 324 324 322 321 320 319 319 319 319 319 318 318 319 319 321 324 326 327 327
341 338 338 339 339 339 339 340 340 337 334 336 337 336 336 337 336 336 336 336 337 338 340 340 341 340 339 339 338 336 335 336 337 338 337 336 335 333 333 335 334 331 329 327 327 327 328 328 327 325 324 323 323 322 321 321 320 319 319 319 319 319 319 319 320 321 321 321 320 320 321 322 324 325
343 341 340 340 339 338 339 339 339 337 334 334 336 336 336 337 336 337 338 338 338 339 341 341 341 340 340 339 339 337 334 334 335 336 337 337 337 336 335 333 332 331 330 328 328 328 328 327 326 324 323 322 320 320 320 319 319 319 319 320 320 320 320 320 321 321 322 322 322 322 322 322 322 323
344 344 343 342 341 340 339 339 338 337 335 333 334 334 335 336 336 338 340 340 340 341 341 341 341 340 340 339 338 337 336 336 338 336 335 336 337 337 335 334 333 330 329 330 330 329 329 328 327 325 324 323 320 319 320 320 320 320 320 320 321 321 320 318 318 318 318 318 319 320 321 322 322 322
345 345 344 343 342 341 341 339 338 337 336 334 333 333 334 335 336 338 340 341 341 342 342 341 341 340 340 339 340 339 339 338 338 337 335 335 336 336 335 334 334 332 330 330 330 330 330 329 328 326 326 325 323 321 321 322 322 322 320 320 320 320 318 317 316 316 316 316 316 316 316 317 318 318
346 345 344 343 342 342 342 340 338 337 336 335 334 334 334 335 336 337 340 341 341 342 341 341 340 340 340 340 340 339 338 338 336 336 336 336 336 335 333 333 333 332 331 330 329 329 329 329 327 326 325 325 324 324 324 323 322 320 318 317 317 317 316 315 315 315 314 314 314 314 314 315 315 316
346 345 344 343 342 342 341 340 338 337 337 336 336 335 335 335 336 337 339 341 341 341 341 340 340 340 340 340 339 338 337 337 336 336 336 336 335 333 332 331 331 331 330 329 328 327 327 327 327 325 324 323 323 324 323 320 318 316 314 313 312 312 311 311 311 311 311 312 312 313 313 314 314 315
346 345 344 342 341 341 340 339 338 337 337 336 336 336 336 335 336 336 337 338 340 341 340 339 340 340 339 340 339 337 336 337 337 336 335 334 334 332 331 331 330 329 329 328 327 326 325 325 325 324 324 323 322 322 321 318 314 313 312 310 309 309 310 310 310 311 312 314 315 315 315 315 316 316
346 345 344 342 341 341 340 339 338 338 337 336 335 336 336 336 336 336 335 335 337 340 340 339 340 340 339 339 338 336 334 335 336 336 334 333 331 330 329 330 329 328 327 326 325 324 324 323 322 321 321 321 321 321 319 315 311 309 309 309 309 311 312 313 313 314 316 316 317 317 317 318 318 318
346 345 344 343 342 341 340 338 338 338 337 336 336 335 335 336 336 336 336 335 335 337 338 338 339 339 337 336 337 335 333 334 336 335 333 331 330 330 329 328 327 326 325 324 323 323 322 320 319 318 318 319 319 319 316 312 308 308 309 310 311 313 314 315 315 316 317 317 317 318 318 318 318 318
346 345 345 344 343 342 340 339 339 338 337 337 338 338 336 337 337 336 336 336 335 336 336 336 338 338 335 334 335 336 334 334 334 332 331 330 329 328 327 326 325 324 324 323 322 321 319 318 317 317 316 316 316 315 314 311 309 309 310 311 313 314 315 315 316 316 317 317 317 317 317 317 317 318
346 345 345 345 343 342 341 340 340 339 337 338 340 341 340 339 339 338 337 336 336 336 336 336 336 336 334 334 335 335 333 332 331 329 329 328 327 326 325 325 323 322 322 321 320 319 318 317 316 316 314 314 314 313 312 311 310 309 310 311 312 312 313 314 314 315 315 316 316 316 316 316 317 317
346 346 346 345 344 342 341 341 341 340 338 338 341 342 341 341 341 340 338 336 337 336 335 334 333 334 334 334 334 331 328 327 328 328 328 326 325 324 324 324 322 319 318 319 319 318 317 316 315 315 313 313 313 313 312 312 311 309 308 309 309 309 309 310 311 312 313 314 315 315 316 316 317 317
346 346 346 345 343 342 342 342 342 340 338 338 340 342 341 340 341 340 338 337 336 335 334 333 333 334 334 333 330 326 324 324 324 324 324 323 322 322 322 321 320 318 317 318 317 315 315 315 314 314 313 312 312 313 313 312 311 311 310 310 309 308 308 308 309 310 311 313 315 316 316 316 316 317
346 345 345 345 343 342 343 342 342 341 338 337 339 342 341 339 340 340 338 336 335 334 333 334 334 334 332 330 327 324 322 321 320 320 322 322 321 320 319 318 319 319 318 318 316 314 313 313 313 312 313 312 312 312 313 313 313 312 311 311 312 311 310 311 311 311 312 314 315 315 316 315 315 316
347 345 344 343 343 342 342 341 341 340 339 337 339 341 341 340 341 340 337 336 335 333 333 334 333 332 330 328 325 322 319 318 317 318 321 321 319 319 319 318 318 317 317 317 315 312 312 312 312 312 312 312 312 312 312 313 314 312 311 311 312 313 313 314 315 314 314 315 314 314 315 315 315 315
347 345 344 343 343 342 342 341 340 339 339 338 338 340 340 339 340 339 337 335 334 333 333 333 332 330 328 325 322 320 319 320 320 320 320 319 319 319 318 318 317 317 316 315 312 311 312 312 311 311 312 312 312 312 311 312 313 313 313 311 311 312 313 314 315 316 316 316 316 316 316 315 314 314
347 346 345 344 344 342 341 340 339 339 339 338 337 337 337 336 337 338 336 335 334 333 334 333 331 329 325 322 320 321 321 321 321 320 319 318 319 318 317 317 317 316 315 313 310 310 312 313 311 311 311 311 311 311 311 311 312 312 313 312 311 311 312 312 313 315 316 316 317 318 317 316 315 313
348 346 345 345 344 342 341 339 339 340 340 338 336 336 336 336 337 337 335 334 334 335 334 332 329 326 322 320 321 321 321 321 320 320 320 319 319 318 317 316 314 313 312 311 310 309 310 312 312 311 311 312 311 310 311 310 310 311 311 311 311 310 311 311 313 315 316 316 318 318 318 317 317 316
348 346 346 345 344 342 341 339 339 340 339 337 336 336 337 337 336 335 334 334 334 335 333 330 328 324 321 321 322 322 322 321 319 318 318 319 318 318 316 313 311 309 308 308 310 309 308 310 312 312 312 312 311 311 311 310 310 310 310 310 310 310 311 312 313 315 317 317 318 318 318 318 317 317
348 347 347 345 344 342 341 340 339 339 337 336 337 337 337 336 335 334 334 335 335 334 331 328 326 323 320 321 322 322 320 318 317 317 318 319 317 316 314 311 309 308 307 307 308 307 305 307 309 310 311 312 311 310 311 310 310 310 309 310 311 312 313 314 315 316 317 318 317 317 317 317 317 316
347 347 346 344 342 341 340 339 338 337 337 337 337 337 336 336 335 335 335 335 335 333 329 325 324 322 320 321 321 318 316 317 319 320 320 319 317 315 313 311 311 311 310 309 308 307 306 306 306 307 310 311 311 310 310 310 309 309 309 310 312 314 315 315 316 316 317 317 317 316 316 316 316 316
345 344 344 343 342 341 340 339 338 337 337 337 336 336 335 335 335 335 336 336 334 331 327 324 324 323 321 319 317 316 316 319 321 319 318 318 316 314 313 312 311 312 310 309 309 308 307 306 305 306 308 310 310 309 309 309 309 310 311 312 314 315 315 315 315 315 316 316 315 315 315 315 315 315
343 342 341 340 339 338 336 335 335 336 336 335 335 335 334 334 335 336 336 336 333 328 325 324 323 321 319 318 318 319 320 322 321 318 316 315 314 313 312 311 311 311 310 309 309 308 307 307 305 304 306 308 308 308 309 309 310 311 313 314 315 314 314 314 314 314 314 314 314 313 314 314 314 313
342 340 338 337 336 334 333 332 332 333 333 333 333 334 334 334 334 335 336 334 330 325 323 321 320 319 319 320 321 321 321 322 321 318 315 312 312 312 312 311 310 310 309 309 309 308 309 309 307 305 304 305 305 305 308 311 311 312 313 315 314 314 314 314 314 314 314 313 313 312 312 313 313 312
340 338 337 336 334 333 332 331 331 331 331 331 331 332 332 332 333 334 334 331 327 324 321 319 320 320 321 322 322 321 322 323 320 316 313 311 310 312 312 311 310 310 309 309 308 308 309 309 309 308 308 308 307 305 307 310 312 313 314 315 314 314 314 313 314 314 313 312 312 311 311 312 312 311
339 337 335 334 333 332 332 332 331 331 331 331 330 330 330 331 332 333 331 329 326 323 320 320 322 322 321 322 322 321 322 322 319 314 312 311 311 311 311 310 309 309 309 308 308 308 309 309 309 309 309 309 309 309 309 310 311 313 314 314 313 313 313 313 313 313 312 311 311 311 311 311 311 310
337 335 334 332 332 332 333 332 332 332 331 331 331 330 330 331 331 331 330 328 326 323 322 321 322 322 322 322 323 322 321 320 318 314 312 312 312 311 310 309 309 309 308 308 307 308 308 308 308 308 308 308 308 309 311 312 311 311 313 313 313 313 313 313 313 312 311 311 311 311 311 310 310 309
335 334 333 333 332 333 333 333 332 332 332 332 332 331 331 330 330 329 329 328 326 324 322 322 322 322 322 322 322 322 320 318 316 314 313 312 311 310 309 309 309 308 308 308 307 308 308 308 307 308 309 309 308 307 309 310 311 311 312 312 312 312 312 312 312 311 311 311 310 310 310 309 309 309
334 333 333 333 333 333 333 333 333 333 334 333 332 332 332 331 330 329 328 327 326 323 322 322 323 323 322 322 322 321 318 316 314 313 312 311 311 310 309 309 308 308 308 307 307 308 308 308 308 308 308 308 308 307 308 309 310 311 312 312 312 312 312 311 311 310 310 309 309 308 308 308 308 308
334 334 334 333 332 333 333 333 333 334 334 332 332 332 332 331 330 329 328 326 325 323 322 323 324 323 323 323 322 319 317 314 313 312 311 311 310 309 309 308 308 307 307 307 307 308 308 308 308 308 309 309 308 308 309 309 310 312 312 312 313 313 312 311 310 309 308 307 307 307 307 308 308 308
334 334 333 333 332 333 333 333 334 333 332 332 332 332 332 331 330 329 328 326 323 323 324 325 324 324 323 322 319 316 315 313 312 312 311 310 309 308 308 308 307 307 307 307 306 307 307 308 308 307 306 306 306 306 308 310 311 312 313 313 312 312 312 311 309 307 306 306 306 307 308 308 308 307
334 333 332 332 332 332 332 332 332 332 332 333 332 332 331 331 330 329 327 324 322 323 325 325 324 323 322 319 316 314 313 313 312 311 310 309 308 308 307 306 306 306 307 307 306 306 307 307 306 305 304 304 306 308 310 312 313 312 312 311 311 311 311 310 309 307 305 305 305 306 307 307 307 306
334 333 332 331 332 332 333 333 333 333 333 333 331 331 331 332 330 326 324 323 323 324 324 324 322 320 318 315 313 313 313 312 311 311 310 309 308 307 307 306 306 307 307 306 306 306 306 307 307 306 306 307 309 311 311 311 311 311 311 311 311 310 310 310 308 306 304 304 304 305 306 306 306 305
333 332 331 332 333 334 335 334 334 333 333 332 331 331 332 330 327 324 322 322 322 322 322 321 319 317 315 314 313 312 312 312 311 311 310 308 308 308 307 307 307 307 306 306 306 306 306 307 307 308 307 308 309 310 310 309 310 311 310 310 310 310 310 309 308 306 304 303 304 304 305 305 304 304
332 331 332 333 334 335 336 335 334 333 333 331 331 331 330 327 324 322 322 321 320 320 320 318 316 315 315 314 313 312 312 311 311 311 310 308 308 307 307 307 307 307 306 306 306 306 307 306 307 307 307 307 308 309 309 310 310 310 309 310 311 311 309 308 307 305 304 304 304 305 304 304 303 303
331 331 332 333 334 335 335 334 333 333 332 331 331 329 327 324 322 321 321 320 319 319 318 316 315 315 315 314 313 312 311 311 310 310 309 308 308 307 307 306 306 306 305 305 306 306 306 306 307 307 307 307 307 309 310 311 311 311 311 311 311 310 308 307 307 305 304 304 305 305 304 304 304 303
Wind_Speed
17 17 18 17 13 11 12 11 9 9 9 8 7 7 7 5 3 2 2 3 3 4 4 4 4 6 8 8 7 5 4 3 2 1 2 1 1 3 4 5 6 8 9 10 12 13 14 14 14 14 15 15 16 16 16 16 16 16 16 17 17 16 16 16 15 15 15 15 15 14 13 12 12 12
18 18 18 17 14 13 13 11 10 10 9 9 9 8 8 7 5 3 3 3 3 2 3 3 4 5 6 6 5 4 3 2 1 1 1 1 2 2 3 5 6 8 9 10 11 12 13 14 14 14 13 14 14 15 15 16 16 16 17 18 18 18 17 16 16 16 15 15 15 15 15 15 15 15
19 19 19 18 16 15 14 12 11 11 10 9 9 9 9 8 7 5 4 3 3 2 3 3 3 4 6 7 4 3 4 3 2 2 2 3 2 2 4 7 7 8 9 10 11 11 12 12 13 13 13 13 13 13 13 14 14 15 17 18 19 19 18 17 17 16 16 16 16 16 16 17 17 17
20 20 20 19 17 16 15 13 12 12 11 10 9 8 8 8 7 6 5 5 4 4 4 4 3 3 5 7 6 5 4 4 3 3 3 3 2 4 7 8 9 9 9 10 11 11 11 11 10 10 11 12 12 12 12 13 14 14 15 17 17 18 18 17 17 17 17 17 17 17 17 18 18 18
20 21 21 20 18 16 15 14 12 12 12 11 10 9 8 8 8 7 6 6 6 5 5 4 3 4 3 5 7 6 5 5 4 3 3 2 3 6 8 7 8 9 9 9 10 10 10 10 9 10 11 11 12 12 13 14 14 15 15 15 16 16 17 17 17 18 18 19 20 20 20 19 19 19
21 22 22 21 20 18 16 15 13 12 13 12 11 11 10 9 9 9 8 7 7 7 6 5 4 4 3 4 6 6 6 5 4 3 3 3 4 7 8 6 7 11 11 10 9 9 9 9 11 12 12 12 12 12 13 13 14 15 15 16 17 18 19 19 20 20 21 22 22 22 22 22 21 20
23 24 23 22 21 19 18 17 15 13 14 14 13 12 12 11 10 10 10 9 8 8 7 6 4 3 3 4 5 6 6 5 5 4 4 4 5 8 10 9 9 11 12 11 9 9 10 11 13 13 13 14 14 14 14 15 16 17 18 19 20 22 23 23 23 23 23 23 23 22 22 22 23 22
25 25 25 23 22 21 20 18 17 16 16 16 15 15 15 13 12 12 13 13 11 9 8 7 6 6 5 5 7 7 7 7 7 6 6 6 7 9 10 10 11 12 12 11 10 11 11 12 13 14 14 14 14 15 15 16 18 19 20 20 21 22 22 23 24 24 24 23 23 22 22 21 22 22
27 27 26 25 24 23 22 20 19 19 19 19 18 17 17 16 14 14 15 15 14 11 10 9 8 8 8 8 9 9 8 6 7 7 7 8 10 11 9 7 9 12 12 11 11 11 11 12 12 13 13 14 14 15 16 18 19 20 19 19 19 19 19 19 20 20 21 22 22 22 22 21 21 21
30 29 28 27 26 26 25 22 21 21 22 22 21 21 19 17 16 16 16 16 15 14 12 11 10 9 9 8 8 9 9 7 6 6 7 7 9 12 12 8 7 9 10 11 12 11 10 10 11 11 11 12 14 15 17 19 19 19 18 17 17 17 17 17 17 17 17 18 19 20 21 21 22 21
32 31 30 29 28 28 27 25 25 25 24 24 24 23 21 19 17 16 15 15 15 14 12 12 11 9 9 9 8 8 9 8 7 7 7 7 7 9 12 11 10 9 10 12 12 11 11 10 12 13 14 16 17 16 15 15 16 16 16 16 16 16 16 16 15 14 14 14 15 16 17 19 20 21
32 32 32 31 30 29 28 28 28 28 26 25 25 25 23 20 18 16 14 14 14 13 12 12 11 10 9 8 7 7 8 7 6 6 6 8 8 9 11 11 10 10 10 10 10 10 10 10 12 15 17 19 19 18 16 14 13 13 15 16 16 15 13 12 12 12 12 12 13 13 14 15 16 17
33 33 33 32 31 31 29 28 28 28 27 26 25 25 24 22 20 17 14 14 14 12 11 11 11 10 9 8 7 6 7 6 5 5 5 7 8 9 11 10 8 8 8 8 9 9 10 10 12 14 15 16 16 16 15 14 12 12 12 12 13 13 12 12 13 14 14 15 15 15 14 14 15 14
33 35 35 34 32 31 30 29 28 27 27 26 24 24 24 23 22 19 17 15 14 12 11 11 11 10 10 8 7 6 7 6 5 5 5 6 7 8 11 11 8 6 6 8 10 11 11 11 13 14 14 14 14 13 12 12 12 12 12 11 12 14 15 17 18 19 19 19 18 18 17 17 17 17
35 35 35 34 32 32 31 30 28 27 27 26 25 24 24 24 23 21 19 16 14 13 12 12 11 11 10 7 6 6 6 5 5 4 5 6 7 9 11 10 8 7 8 10 12 13 12 12 13 14 14 14 13 12 12 13 14 14 14 15 16 17 18 20 20 20 19 18 18 17 18 18 18 19
36 36 35 33 33 33 32 30 29 27 26 26 26 25 25 25 23 22 21 18 15 14 14 13 12 11 10 7 7 7 5 5 4 4 5 7 8 9 10 10 9 9 9 10 12 13 12 11 12 13 14 13 13 13 14 15 16 17 18 19 19 19 18 17 17 16 15 15 15 15 16 17 18 19
36 37 35 33 33 34 31 29 28 26 26 26 26 25 25 25 24 23 22 20 18 16 14 14 13 11 10 8 7 7 7 6 5 5 6 7 8 9 10 10 11 11 10 9 11 13 12 11 12 14 14 13 13 12 14 17 19 19 19 19 17 16 14 13 13 13 13 13 14 14 15 16 17 18
37 37 37 36 35 34 32 29 27 26 26 25 24 24 26 27 26 25 24 22 21 19 16 15 13 11 10 9 7 8 8 8 6 5 6 7 7 9 10 11 12 11 9 7 8 10 11 11 13 15 14 13 13 12 14 18 19 17 16 15 14 13 12 12 12 12 12 13 13 13 14 15 16 17
38 38 38 37 36 34 32 31 28 27 26 23 21 21 24 26 26 25 25 24 23 22 20 17 13 10 10 10 8 7 7 6 5 6 6 6 6 8 8 9 10 8 6 5 6 9 12 12 13 15 14 13 13 13 15 17 17 15 14 14 13 13 13 13 13 13 13 12 13 14 14 15 16 17
38 39 38 37 36 34 33 31 29 27 26 22 19 19 20 22 22 22 25 25 23 21 19 16 13 11 11 11 9 7 7 6 5 5 5 6 6 6 6 7 7 6 5 5 6 9 13 12 12 14 14 13 14 15 14 14 13 13 14 14 14 15 15 15 15 15 15 14 14 14 15 16 17 17
38 39 39 37 36 34 33 32 29 26 24 21 19 17 18 19 17 18 23 24 21 19 17 15 14 13 12 10 9 8 7 6 6 5 5 5 5 4 5 5 5 6 6 6 6 9 12 11 11 14 14 14 15 14 12 12 13 14 16 17 18 18 18 18 19 19 18 17 16 16 17 17 17 18
38 38 38 37 36 36 35 33 29 26 24 22 19 17 18 19 17 17 20 21 18 17 16 15 14 13 11 10 9 7 7 6 6 6 6 4 4 4 4 5 5 7 8 5 5 9 11 11 11 13 14 14 13 12 11 12 13 15 17 19 19 19 18 19 20 20 20 19 17 17 16 15 14 15
36 37 37 37 37 36 35 33 29 25 25 24 21 18 19 20 19 18 20 21 20 19 17 16 15 14 12 10 9 7 7 6 6 7 6 4 3 3 4 5 5 7 6 4 5 9 11 11 11 12 13 12 11 11 12 13 14 16 17 18 17 18 18 18 18 19 19 18 17 17 15 13 13 12
32 34 35 36 37 35 33 33 29 25 25 26 23 21 20 19 18 19 21 22 22 20 19 18 17 15 13 12 10 8 7 7 8 8 7 5 4 4 5 5 5 7 7 5 6 9 10 11 11 12 11 10 11 14 15 14 15 17 17 16 16 17 18 18 17 17 17 18 19 18 17 15 14 12
28 31 31 32 36 37 34 32 30 26 25 26 25 24 23 21 21 21 22 23 22 20 19 18 16 15 14 12 10 9 9 9 9 9 8 6 5 5 5 5 7 8 9 8 8 9 9 10 12 12 11 11 13 17 18 17 17 16 15 15 16 17 17 17 16 16 17 18 18 18 18 18 17 16
28 30 29 28 34 38 35 32 30 27 25 26 27 25 24 23 23 22 22 22 21 19 18 17 15 14 13 12 11 10 10 10 10 9 8 7 7 6 6 6 8 9 9 10 11 10 8 10 11 12 12 13 15 17 18 18 16 15 14 16 17 17 17 17 17 16 16 16 16 16 19 20 20 19
29 28 26 27 32 36 35 33 30 27 26 27 28 25 24 24 23 21 23 24 21 19 18 17 15 14 13 12 12 12 11 10 10 9 8 8 7 7 8 8 9 10 9 10 10 10 9 9 10 11 12 13 14 16 16 17 17 17 17 17 18 18 18 16 16 16 16 16 16 17 18 19 18 18
32 31 30 32 33 33 33 31 29 27 27 28 27 25 24 24 22 22 25 25 22 19 18 17 15 15 15 14 13 13 12 11 11 10 8 8 8 8 8 9 9 9 10 9 9 9 9 10 10 11 11 11 13 14 15 17 18 19 19 19 19 17 16 15 15 15 15 15 16 16 17 17 16 16
36 37 36 35 34 31 30 30 29 28 27 27 26 25 25 24 24 26 26 24 21 19 18 17 15 15 17 15 14 14 14 13 11 9 8 8 8 7 7 9 9 9 9 9 8 8 10 12 12 12 10 10 12 14 15 18 19 19 20 20 19 17 15 14 14 14 15 15 16 16 17 18 18 17
36 36 34 33 31 29 29 31 31 29 27 26 26 26 26 25 27 28 27 24 22 20 18 16 15 15 16 16 16 16 15 13 10 9 8 7 6 5 5 7 7 7 7 7 7 8 10 13 13 12 11 10 12 14 15 17 19 20 20 19 17 15 14 13 14 15 15 16 17 18 19 19 18 18
31 30 29 28 27 28 30 31 30 27 27 28 28 29 27 25 25 27 28 26 24 21 18 16 15 15 16 18 18 17 15 12 10 9 8 6 5 4 5 6 7 8 7 6 7 8 10 12 12 12 12 12 13 15 16 17 19 21 20 17 14 14 14 14 15 15 16 17 19 20 20 19 19 19
29 27 26 26 27 29 29 27 25 25 27 29 30 28 24 22 24 27 27 25 24 21 17 16 16 17 19 19 16 14 12 10 10 10 9 7 6 4 4 6 8 8 8 8 8 8 9 10 11 13 14 14 14 16 16 17 18 18 17 14 14 14 15 16 16 17 17 18 20 22 22 21 21 21
32 29 29 29 29 28 25 23 23 25 27 27 26 24 21 20 25 29 27 23 23 22 19 18 19 20 19 16 14 12 11 10 10 10 10 8 7 5 5 7 8 8 9 9 9 9 8 8 11 14 15 15 16 17 17 17 16 16 14 14 15 16 16 16 17 18 19 20 22 24 23 22 22 22
37 37 36 35 34 31 28 26 25 25 25 25 24 23 21 20 25 29 25 21 22 22 20 19 19 18 16 15 13 13 11 9 10 11 10 8 7 6 6 7 8 8 8 9 9 9 8 9 11 12 13 13 14 16 16 15 14 14 14 14 15 17 18 18 18 19 20 21 22 24 25 24 23 23
41 42 40 36 36 34 29 27 26 25 25 24 24 24 21 19 24 27 23 20 22 22 20 19 17 16 16 14 13 12 11 10 10 10 9 8 7 7 7 7 8 8 8 9 9 8 8 9 10 11 11 11 12 13 13 11 11 12 13 14 15 17 18 19 20 20 21 21 21 22 24 25 25 25
39 40 36 34 36 36 32 30 29 27 26 25 25 24 20 19 23 25 24 24 25 21 19 18 16 16 15 13 12 12 11 10 10 9 9 8 7 6 6 7 8 8 9 9 8 7 7 8 8 9 10 10 10 10 9 8 9 12 13 14 15 17 18 19 21 21 21 21 20 21 22 24 27 27
33 32 31 31 34 34 32 32 30 27 24 24 24 23 21 21 24 25 26 28 25 20 18 18 16 15 14 12 11 11 11 10 10 9 8 8 7 6 6 7 7 8 8 8 8 7 7 7 7 7 8 8 7 8 9 10 12 13 13 14 15 16 17 19 21 21 20 20 20 20 21 24 27 29
30 29 28 29 31 31 28 28 27 25 23 24 24 23 21 22 25 27 27 27 23 19 18 17 15 14 13 12 11 12 11 11 10 8 8 7 6 6 7 7 7 7 8 8 8 7 6 6 6 6 7 7 6 7 10 13 15 15 14 15 16 16 16 18 20 21 21 21 20 20 21 24 27 29
33 32 29 28 29 29 28 27 27 26 25 26 27 26 23 22 25 29 28 24 21 18 17 15 14 13 12 12 12 12 12 11 10 8 7 7 6 6 7 6 6 7 8 8 8 7 6 6 6 5 6 8 9 11 13 16 18 19 18 16 14 14 15 18 19 20 21 21 20 21 23 24 26 28
33 32 32 30 27 26 27 28 28 29 29 30 31 32 28 25 26 28 26 23 21 19 16 14 14 13 12 13 13 12 11 11 9 8 7 7 7 6 6 5 5 7 8 9 9 8 7 6 6 7 9 12 15 17 17 17 20 20 18 15 13 14 16 18 19 19 20 20 20 21 23 23 24 26
38 35 36 35 32 30 30 31 32 33 34 33 33 32 30 28 27 25 24 23 23 20 15 14 14 14 13 14 14 12 11 10 9 8 7 7 7 7 6 5 5 6 8 9 9 8 7 7 8 11 13 15 15 15 14 14 15 15 15 15 16 16 18 20 20 20 20 19 19 20 21 23 24 25
41 39 37 37 37 36 35 35 35 34 34 33 33 31 30 28 26 24 23 22 21 19 15 14 15 14 14 14 14 12 11 10 9 8 8 7 7 7 6 5 5 6 7 9 10 10 9 9 9 10 11 11 11 11 12 13 14 15 16 17 17 17 18 20 22 23 22 21 19 18 20 22 22 22
35 36 35 37 39 38 36 35 34 33 33 33 33 31 29 27 25 23 22 21 20 17 14 14 15 15 14 13 13 12 11 10 9 8 8 8 7 6 5 5 5 6 8 10 10 10 10 9 8 8 9 10 9 10 13 14 15 16 17 17 17 17 18 19 20 22 22 22 20 18 19 20 20 21
33 34 35 37 37 36 34 34 34 34 34 33 31 30 29 28 25 23 21 20 19 16 14 15 15 15 14 13 13 12 11 10 9 9 9 9 8 7 5 5 5 6 8 9 10 10 9 9 8 8 8 10 11 11 13 14 15 16 17 18 17 18 19 19 19 20 20 19 18 18 19 21 23 24
32 33 35 37 36 34 33 34 34 34 33 32 31 30 29 27 24 22 20 19 18 16 15 16 15 14 14 13 12 12 11 10 10 9 9 9 8 7 6 5 6 7 8 8 9 9 9 8 8 8 8 10 11 11 12 14 14 15 17 17 17 18 19 20 20 20 19 18 17 18 20 23 24 25
Wind_Direction
243 248 253 253 248 249 248 240 237 242 236 225 220 216 216 222 234 254 247 250 264 261 256 271 286 271 257 247 243 247 253 256 249 163 140 158 240 270 282 289 292 293 292 291 289 287 286 287 286 283 278 274 272 271 273 275 278 280 282 284 285 284 283 281 280 279 280 281 282 280 277 272 269 267
243 247 251 252 248 248 248 239 235 239 234 226 225 223 220 219 223 243 263 266 264 260 258 277 306 289 253 234 231 239 252 256 238 208 209 228 243 263 293 304 302 300 297 294 290 284 283 285 288 287 282 276 271 269 270 272 276 278 280 280 281 281 280 279 278 277 276 277 277 277 275 271 269 266
243 247 249 251 250 248 244 237 235 235 230 225 223 222 223 221 221 229 244 262 251 235 267 289 298 284 253 239 239 248 264 262 231 227 236 227 238 294 325 327 319 312 308 302 292 281 280 285 291 292 288 281 276 273 274 276 279 282 283 281 279 279 278 278 279 278 278 277 276 275 273 270 268 266
242 245 247 249 250 247 241 236 235 232 226 221 217 217 218 218 222 222 229 259 263 244 272 290 283 281 257 242 244 248 251 247 230 233 236 229 292 341 342 339 334 324 316 308 295 284 284 288 289 289 288 284 281 279 280 284 287 289 287 284 281 279 279 278 278 279 279 279 279 278 275 271 268 265
239 242 245 247 248 246 240 235 232 228 223 219 217 218 216 217 227 226 225 255 272 268 280 282 271 299 289 241 237 237 231 230 232 239 246 258 324 345 345 340 333 328 323 315 303 290 285 284 283 286 289 287 284 282 281 283 286 287 287 285 282 281 280 279 279 279 281 282 283 283 280 276 271 266
235 239 242 244 244 244 239 234 231 224 220 218 216 219 220 218 230 238 234 245 262 267 274 272 262 284 293 247 226 220 217 225 243 257 268 287 321 340 345 337 324 327 329 322 308 290 278 278 283 287 288 288 288 287 285 283 282 281 281 282 283 283 283 283 283 284 284 285 285 284 281 278 274 269
233 237 240 239 240 241 238 233 230 224 221 219 215 217 222 221 226 238 238 236 249 265 269 266 256 254 264 249 234 236 241 253 271 275 273 291 317 331 335 331 322 322 322 316 301 285 279 282 287 288 286 284 285 285 285 284 283 282 282 282 282 283 284 286 286 287 286 285 284 283 280 275 272 269
232 235 237 236 236 239 238 233 230 227 223 221 217 216 222 223 223 231 236 234 240 256 264 260 255 251 255 256 255 261 264 267 279 284 282 294 311 320 323 324 322 318 314 308 297 286 284 286 286 286 285 284 285 285 284 284 284 285 286 285 284 283 282 284 286 288 289 286 283 280 277 274 271 267
232 234 236 236 237 239 237 231 228 228 225 221 218 217 220 222 223 228 233 235 236 243 251 254 256 257 257 260 265 269 266 264 274 286 293 302 311 316 318 316 317 318 317 311 304 298 294 291 287 283 282 284 286 287 287 287 288 289 288 287 286 287 287 289 290 291 292 291 287 282 276 273 270 267
233 235 236 237 238 239 236 230 229 231 227 222 219 220 221 222 226 227 230 234 235 237 242 248 253 253 252 254 261 269 270 269 275 286 293 295 302 314 320 318 313 317 318 313 309 306 301 295 290 286 285 286 288 290 291 291 291 291 290 289 288 290 293 295 296 294 293 293 292 288 282 276 271 268
234 235 237 238 239 239 238 234 233 233 228 223 222 224 224 224 226 224 225 230 233 233 236 243 249 250 251 253 256 267 274 277 283 290 295 292 293 309 316 315 311 309 310 311 309 307 304 299 297 300 302 302 302 302 301 297 293 291 291 291 291 293 294 295 295 293 290 287 286 286 283 279 275 271
234 236 237 238 238 239 239 238 237 236 231 226 225 226 227 226 225 220 219 224 228 231 234 242 250 252 255 258 254 261 268 269 272 276 286 294 299 306 308 307 308 306 307 307 304 303 306 304 303 308 309 310 313 315 313 308 302 295 292 291 293 296 299 299 297 294 289 285 282 280 279 277 276 273
233 235 237 237 237 239 240 241 241 241 237 232 229 230 229 226 224 221 220 221 224 229 234 241 249 251 252 250 241 243 248 250 260 259 267 286 295 301 303 305 309 308 307 307 301 301 307 306 305 307 307 308 312 314 313 312 308 303 300 297 297 298 298 297 295 293 290 289 286 284 281 278 275 272
232 235 238 238 237 239 241 242 243 242 241 240 238 238 235 230 227 223 221 222 224 226 233 244 250 252 253 247 232 236 244 243 249 251 260 280 287 293 299 304 306 301 304 312 309 305 306 304 305 307 305 305 309 307 304 304 305 308 310 307 301 297 293 291 291 291 291 290 289 287 284 280 277 273
230 235 237 237 238 239 240 241 241 239 240 242 243 242 241 239 236 229 224 224 223 224 235 246 249 251 256 247 227 238 249 236 236 254 269 280 286 292 298 302 301 300 307 315 311 305 303 303 302 303 304 306 307 303 301 304 308 311 311 307 303 299 295 293 291 290 291 290 288 286 284 281 278 275
230 233 235 235 236 238 238 236 235 234 236 240 242 241 240 240 239 235 232 229 223 222 232 241 243 243 247 242 230 235 240 234 241 264 271 276 285 291 294 296 301 308 312 314 311 306 305 305 302 302 305 306 306 305 306 309 310 310 308 306 305 303 300 296 291 289 289 288 286 285 284 282 281 279
229 231 232 231 234 238 236 230 229 231 233 237 239 238 237 237 236 234 235 235 231 227 230 236 239 238 237 235 229 229 241 253 259 265 270 276 283 287 290 293 299 305 307 309 310 306 306 311 308 305 307 307 306 308 310 311 312 311 309 308 306 304 301 296 292 290 288 288 287 285 284 283 282 281
228 230 231 232 234 236 233 227 225 227 228 231 234 233 233 234 233 231 233 236 235 233 232 234 236 237 238 232 225 234 251 259 253 253 268 278 278 282 289 293 296 299 301 305 306 302 309 318 312 307 310 309 308 311 312 316 320 317 313 311 308 303 300 297 295 292 289 287 287 286 285 283 280 278
229 231 232 234 236 234 231 228 225 223 223 224 224 225 227 228 228 229 232 232 232 232 233 234 232 231 234 230 222 231 244 242 236 242 254 262 268 278 285 290 295 299 298 300 302 300 308 317 311 306 310 311 310 313 313 317 324 323 317 316 312 306 303 300 298 295 291 288 287 288 288 285 282 279
229 231 233 235 234 231 230 230 228 225 223 219 214 215 219 221 221 224 229 230 229 230 232 230 221 218 226 230 228 226 222 218 224 230 238 248 257 271 282 288 296 304 301 301 306 302 305 312 309 306 310 312 309 311 312 315 323 325 320 317 312 308 305 302 300 297 292 289 289 290 290 287 285 283
228 231 234 234 232 229 229 232 231 227 222 216 210 211 215 217 212 213 225 229 226 225 225 219 214 218 225 229 228 226 224 223 219 215 231 251 251 254 274 283 292 305 306 306 310 306 304 309 310 307 310 311 306 305 309 314 319 321 318 315 313 309 302 297 295 294 292 292 293 294 294 292 290 288
228 230 233 232 229 228 231 233 232 227 221 214 210 208 212 214 207 204 216 218 209 204 204 204 209 215 217 216 216 218 223 230 230 224 230 244 238 243 269 282 293 303 304 304 314 310 305 308 313 310 310 311 308 303 304 308 313 318 318 316 314 312 307 298 292 290 291 293 294 296 300 300 297 295
226 228 231 230 229 229 232 233 231 225 219 214 210 205 207 211 207 202 205 203 194 191 192 196 202 203 200 203 209 214 221 225 223 218 215 217 218 237 268 282 290 299 303 308 317 312 307 308 313 313 312 313 313 310 305 303 309 316 318 314 311 314 314 307 298 294 293 292 293 297 300 302 304 303
221 224 227 228 229 228 229 231 228 221 217 213 208 203 202 203 201 198 199 198 194 192 193 194 195 193 193 198 202 207 214 210 202 200 200 204 210 229 263 277 283 293 300 304 307 306 305 306 308 310 310 305 305 309 308 304 305 311 316 316 312 312 314 310 305 301 299 296 295 296 297 300 306 306
215 218 220 223 227 225 224 226 222 215 213 210 205 204 203 203 202 200 198 196 193 191 190 187 185 186 190 193 193 194 195 192 190 192 197 204 213 229 255 273 282 292 299 301 301 300 297 300 304 308 306 300 300 307 310 308 306 307 311 313 312 310 309 307 303 300 300 301 300 297 297 301 307 310
214 217 216 218 223 222 220 219 214 209 207 204 203 207 208 208 209 205 196 190 186 184 183 181 179 182 184 183 182 183 185 186 187 192 199 208 218 232 246 259 270 281 291 298 299 297 289 292 300 306 306 304 304 307 308 308 310 311 310 310 310 309 307 304 301 299 299 299 296 293 296 301 307 311
213 215 212 215 222 221 216 212 208 203 200 197 200 206 208 207 207 200 189 183 180 180 182 180 178 180 179 177 180 183 184 187 189 194 203 214 225 237 249 260 265 270 279 289 293 291 286 286 291 297 301 302 304 306 306 307 311 314 312 309 309 310 309 305 301 298 297 296 294 294 297 300 302 305
210 213 214 218 222 219 213 210 206 199 193 192 196 201 203 201 196 188 183 181 180 180 182 181 179 180 180 179 181 183 183 187 196 203 213 226 233 240 255 269 276 277 283 286 283 282 286 287 288 292 295 296 299 302 304 306 308 311 311 311 311 311 310 307 302 297 295 295 296 297 297 297 296 296
214 218 221 221 219 215 209 207 204 198 191 189 192 196 196 193 186 182 182 181 181 182 183 182 180 182 183 182 183 185 187 193 202 209 214 224 234 248 267 279 283 282 284 282 276 280 291 292 291 293 291 290 294 297 301 304 305 306 308 309 309 308 306 302 299 297 296 297 298 297 295 293 292 291
217 219 219 216 212 206 201 201 201 198 189 186 189 192 191 186 182 181 182 182 183 184 183 182 182 180 181 183 186 192 195 197 200 208 213 214 220 237 263 279 282 276 274 271 269 281 291 291 292 295 295 293 294 296 299 302 301 302 305 305 304 304 304 301 299 298 299 301 301 298 294 291 289 288
211 210 209 206 202 197 195 198 201 197 187 183 185 186 185 182 181 184 186 187 187 186 182 180 177 174 178 185 190 194 197 197 202 216 223 219 214 225 251 274 282 279 273 269 272 283 289 288 290 296 299 298 298 298 299 298 296 297 300 301 299 299 302 304 302 300 302 303 301 298 295 292 290 288
198 196 191 188 188 188 188 191 193 191 186 183 181 180 180 180 183 186 189 190 190 188 182 176 174 177 183 187 189 192 195 198 208 221 226 223 222 227 246 268 280 282 280 279 283 288 288 285 289 297 302 300 299 300 298 294 291 292 294 296 298 299 302 305 303 304 306 304 300 298 296 293 290 289
183 177 173 173 176 179 180 181 182 182 181 179 178 176 177 180 185 188 189 189 190 190 186 182 180 182 185 185 185 192 196 196 208 221 223 222 222 221 237 260 271 274 278 284 290 291 287 286 294 302 305 303 301 300 295 287 287 292 294 296 300 302 305 307 305 306 309 306 302 301 298 294 292 291
171 166 168 170 172 173 175 178 178 178 177 175 174 176 177 178 184 188 188 188 191 191 188 185 182 181 185 186 187 195 199 194 202 216 218 215 216 219 235 258 265 265 273 283 290 289 288 295 303 307 308 306 301 297 289 279 281 291 296 297 301 302 305 309 308 308 309 306 304 304 301 297 294 294
168 168 169 169 168 169 172 176 176 176 178 177 176 177 178 179 183 186 186 186 190 190 186 184 183 183 187 190 191 196 201 195 195 202 204 204 212 223 238 255 264 268 276 283 285 285 289 301 312 316 315 312 305 296 286 275 281 295 299 299 303 305 305 308 310 310 308 307 304 303 301 299 298 298
169 171 169 165 165 167 170 175 177 177 179 181 180 178 177 179 183 185 187 189 191 190 185 185 186 188 190 192 194 197 200 196 191 191 196 202 210 222 236 248 258 268 277 280 281 284 290 302 315 318 316 316 312 304 293 285 295 305 303 300 305 307 307 309 311 309 307 306 304 301 299 298 299 300
167 170 168 166 167 168 170 172 174 177 180 183 183 181 179 179 181 184 189 192 192 189 188 189 190 191 191 192 195 196 195 195 195 195 198 204 209 221 236 248 258 269 276 277 277 280 285 298 310 309 305 306 307 305 306 303 303 306 304 302 306 310 311 311 311 309 307 306 304 301 300 299 299 299
164 167 170 170 169 168 169 170 172 175 180 182 183 182 178 177 180 184 190 193 192 190 191 192 190 189 190 192 196 196 190 189 194 198 202 206 208 219 238 253 266 274 278 279 278 277 279 290 298 295 295 299 299 302 309 309 305 306 305 301 302 307 314 315 313 311 310 308 305 304 301 297 295 297
166 168 172 174 172 169 170 172 173 175 179 181 182 180 174 172 179 186 189 191 190 189 189 190 187 186 189 191 194 193 185 184 192 199 204 208 209 218 238 257 272 282 285 284 284 282 281 287 296 297 294 294 292 295 300 299 296 296 296 293 290 296 310 317 316 312 310 308 307 306 302 298 297 300
167 168 172 174 174 173 171 172 175 178 181 184 183 181 179 177 180 186 188 189 190 188 186 186 187 186 185 186 188 187 183 186 193 199 201 205 208 218 237 258 275 284 288 288 290 290 287 291 304 306 300 298 298 298 292 285 283 286 291 296 297 299 305 312 314 312 309 308 309 307 304 305 309 311
168 171 174 174 175 178 176 175 178 181 184 185 183 182 182 182 182 184 186 188 190 189 185 184 186 183 180 180 183 185 185 187 193 197 198 202 208 215 228 251 270 280 284 288 292 293 294 300 308 309 307 306 305 300 289 281 285 295 303 309 312 310 310 311 311 310 308 306 307 307 308 312 315 315
169 171 173 173 177 182 183 181 181 182 183 182 181 181 183 184 184 185 186 188 190 189 184 180 179 176 175 179 183 187 190 192 194 196 196 199 206 211 217 235 259 274 283 289 292 294 297 301 306 309 309 304 296 290 290 293 301 308 310 311 314 316 315 313 311 310 309 307 303 302 308 316 320 318
169 168 169 174 179 184 184 183 182 182 181 180 181 181 181 182 183 184 184 184 185 183 178 174 173 174 176 182 186 191 195 196 195 196 198 202 208 213 221 235 256 276 285 288 289 291 294 300 303 304 304 299 290 287 293 298 302 307 311 314 315 316 315 313 310 309 309 307 302 297 300 308 311 309
167 165 168 176 180 182 183 182 182 182 180 180 180 180 180 180 180 179 178 177 177 176 174 173 173 175 180 185 189 194 198 200 199 199 202 205 208 214 228 243 259 275 283 285 287 289 293 300 302 299 298 300 298 293 294 298 302 307 311 314 314 315 318 318 315 312 310 309 307 305 305 306 305 303
168 167 171 176 178 179 181 183 182 182 180 179 179 180 179 178 175 172 173 175 175 175 176 176 176 180 185 189 192 196 200 203 204 205 208 210 211 214 225 240 254 269 278 281 285 289 292 297 299 296 297 300 298 293 292 294 297 303 309 313 316 319 321 320 318 317 314 312 312 313 315 316 317 316